     2              OBSERVATION DATA    GPS                 RINEX VERSION / TYPE
teqc 1997Sep10 19970910 19:02:03UTC                         PGM / RUN BY / DATE
                                                            COMMENT
BIT 2 OF LLI FLAGS DATA COLLECTED UNDER A-S CONDITION       COMMENT
BIT 2 OF LLI FLAGS DATA COLLECTED UNDER A-S CONDITION       COMMENT
Original Marker Name: unknown                               COMMENT
Campaign Name: Southern California GPS Survey March - A     COMMENT
4-Character Station Name: FORD                              COMMENT
6-Character Antenna Code: TI4100                            COMMENT
Vertical Measurement Point: PAE                             COMMENT
Vertical Offset to Rinex Ref. Point: 0.0000                 COMMENT
Radial Measurement Point: RRP                               COMMENT
Radial Offset to Rinex Ref. Point: 0.0000                   COMMENT
Antenna Height from Field Measurement: 1.3965 m             COMMENT
Original XYZ: 0.0000 0.0000 0.0000                          COMMENT
New XYZ position is based on association with SCEC monument COMMENT
E1D1E1Y1+0011. Position of that monument is believed to be  COMMENT
valid to within 1 m horizontally; vertical accuracy         COMMENT
should be no worse than 3-times this value.                 COMMENT
                                                            COMMENT
Revised Rinex header created by UCSD GPS archive for        COMMENT
GSAC on 16-Apr-1999 (1999:106) 23:42:46 GMT                 COMMENT
For assistance contact dagnew@ucsd.edu or hjohnson@ucsd.edu COMMENT
                                                            COMMENT
FORD                                                        MARKER NAME
unknown NATIONAL GEODETIC SURVEY                            OBSERVER / AGENCY
5 TI 4100 GSI TI4100                                        REC # / TYPE / VERS
130 TI 4100                                                 ANT # / TYPE
 -2246307.0000 -4819673.0000  3510472.0000                  APPROX POSITION XYZ
        1.3965        0.0000        0.0000                  ANTENNA: DELTA H/E/N
     1     1     0                                          WAVELENGTH FACT L1/2
     6    L1    L2    P1    P2    D1    D2                  # / TYPES OF OBSERV
     0                                                      INTERVAL
  1988     3    22     2    43   41.000000                  TIME OF FIRST OBS
  1988     3    22     8    31   41.000000                  TIME OF LAST OBS
     0                                                      # OF SATELLITES
                                                            END OF HEADER
 88  3 22  2 43 40.8800000  0  3G 6G 9G11
   3085271.331 9  -7022030.382 8  16294214.554    16294217.457        2101.059
      1647.728
    134072.935 8                                                      2796.519

   2586135.511 8 -11863402.148 8  18189073.911    18189079.200        3749.893
      2926.773
 88  3 22  3 53 41.0800000  0  3G 6G 9G11
  -4648403.225 9 -13048265.165 8  14822541.746    14822542.702        1368.272
      1058.077
 -12376115.232 7  -9711271.803 9  17036346.503    17036347.691        3037.727
      2366.408
 -10781723.500 9 -22279906.986 8  15645248.854    15645251.899        2343.320
      1817.147
 88  3 22  3 54 11.0800000  0  3G 6G 9G11
  -4688984.594 8 -13079886.992 8  14814818.369    14814820.098        1337.005
      1042.518
 -12467146.774 7  -9782205.381 9  17019024.606    17019026.574        3030.120
      2361.679
 -10851779.292 9 -22334495.899 8  15631918.341    15631921.155        2316.519
      1830.034
 88  3 22  3 54 41.0800000  0  3G 6G 9G11
  -4729254.931 9 -13111266.464 8  14807155.981    14807156.580        1344.915
      1039.144
 -12558132.473 8  -9853103.236 8  17001710.883    17001712.570        3029.171
      2364.556
 -10921370.810 9 -22388723.023 8  15618675.773    15618677.882        2324.557
      1820.347
 88  3 22  3 55 11.0800000  0  3G 6G 9G11
  -4769211.869 9 -13142401.726 8  14799551.868    14799553.382        1317.380
      1027.238
 -12649070.449 8  -9923963.925 8  16984406.147    16984407.449        3038.030
      2374.946
 -10990496.498 9 -22442587.165 8  15605520.504    15605523.897        2287.205
      1811.082
 88  3 22  3 55 41.0800000  0  3G 6G 9G11
  -4808853.000 8 -13173290.913 9  14792009.191    14792010.692        1344.827
      1025.138
 -12739958.574 9  -9994785.768 8  16967110.412    16967111.606        3031.794
      2360.766
 -11059154.726 9 -22496087.054 8  15592455.366    15592456.866        2274.996
      1789.122
 88  3 22  3 56 11.0800000  0  3G 6G 9G11
  -4848175.965 8 -13203932.162 9  14784526.651    14784526.949        1323.919
      1017.656
 -12830794.943 9 -10065567.288 8  16949824.318    16949825.899        3024.562
      2360.592
 -11127343.818 9 -22549221.387 8  15579478.923    15579481.958        2273.146
      1766.455
 88  3 22  3 56 41.0800000  0  3G 6G 9G11
  -4887178.441 9 -13234323.699 8  14777104.289    14777105.547        1291.973
      1028.151
 -12921577.523 9 -10136306.909 8  16932549.485    16932550.301        3038.573
      2373.740
 -11195062.315 9 -22601989.021 8  15566592.599    15566596.186        2257.237
      1759.837
 88  3 22  3 57 11.0800000  0  3G 6G 9G11
  -4925857.974 8 -13264463.582 8  14769743.750    14769744.492        1278.704
      1015.674
 -13012304.498 9 -10207003.203 7  16915284.936    16915285.773        3036.651
      2361.431
 -11262308.535 9 -22654388.640 8  15553796.604    15553799.579        2241.767
      1739.015
 88  3 22  3 57 41.0800000  0  3G 6G 9G11
  -4964212.405 8 -13294350.134 8  14762444.939    14762446.296        1262.931
       990.123
 -13102973.674 9 -10277654.467 8  16898030.318    16898032.758        3018.118
      2343.286
 -11329080.794 9 -22706418.942 7  15541090.292    15541092.304        2220.380
      1754.071
 88  3 22  3 58 11.0800000  0  3G 6G 9G11
  -5002239.406 9 -13323981.565 8  14755209.319    14755209.417        1260.307
      1000.040
 -13193583.224 9 -10348259.265 7  16880787.150    16880789.261        3029.976
      2350.774
 -11395377.808 8 -22758078.922 7  15528473.871    15528476.778        2215.013
      1720.553
 88  3 22  3 58 41.0800000  0  3G 6G 9G11
  -5039936.684 9 -13353356.052 9  14748035.863    14748037.635        1250.475
       973.756
 -13284131.147 9 -10418816.045 8  16863556.754    16863559.006        3011.500
      2342.137
 -11461197.695 8 -22809367.111 8  15515949.388    15515952.738        2197.119
      1707.846
 88  3 22  3 59 11.0800000  0  3G 6G 9G11
  -5077301.768 9 -13382471.694 9  14740924.532    14740926.062        1230.834
       959.340
 -13374615.346 9 -10489323.161 8  16846338.084    16846340.022        3020.104
      2356.329
 -11526538.888 9 -22860282.300 8  15503514.575    15503517.446        2156.274
      1692.803
 88  3 22  3 59 41.0800000  0  3G 6G 9G11
  -5114332.394 9 -13411326.703 9  14733878.516    14733879.644        1224.789
       965.634
 -13465033.852 9 -10559779.088 8  16829131.905    16829133.593        3008.198
      2356.155
 -11591399.907 7 -22910823.335 8  15491172.484    15491174.335        2155.221
      1677.945
 88  3 22  4  0 11.0800000  0  3G 6G 9G11
  -5151026.222 9 -13439919.288 9  14726895.630    14726897.402        1204.638
       945.850
 -13555384.387 9 -10630182.053 8  16811939.792    16811939.484        3010.543
      2347.785
 -11655779.678 8 -22960989.355 7  15478921.166    15478924.230        2127.199
      1662.976
 88  3 22  4  0 41.0800000  0  3G 6G 9G11
  -5187380.827 9 -13468247.551 8  14719979.310    14719978.463        1210.148
       953.580
 -13645665.053 9 -10700530.560 9  16794759.337    16794759.780        3018.541
      2357.323
 -11719676.701 9 -23010779.207 7  15466761.224    15466764.843        2119.265
      1642.980
 88  3 22  4  1 11.0800000  0  3G 6G 9G11
  -5223393.982 9 -13496309.732 8  14713124.951    14713126.151        1204.008
       914.837
 -13735873.787 9 -10770823.025 8  16777592.328    16777593.680        3028.605
      2357.031
 -11783089.326 8 -23060191.617 8  15454694.705    15454698.238        2107.104
      1620.754
 88  3 22  4  1 41.0800000  0  3G 6G 9G11
  -5259063.317 9 -13524104.010 9  14706336.335    14706338.020        1187.246
       932.192
 -13826008.558 8 -10841057.841 8  16760440.441    16760442.702        3001.189
      2340.005
 -11846016.317 8 -23109225.608 8  15442719.867    15442723.261        2099.863
      1617.249
 88  3 22  4  2 11.0800000  0  3G 6G 9G11
  -5294386.493 9 -13551628.553 8  14699615.792    14699616.835        1167.565
       923.977
 -13916067.137 8 -10911233.285 9  16743302.969    16743304.499        3001.444
      2345.157
 -11908456.167 8 -23157879.994 7  15430838.521    15430840.608        2084.561
      1614.552
 88  3 22  4  2 41.0800000  0  3G 6G 9G11
  -5329361.441 9 -13578881.754 9  14692959.276    14692961.020        1164.599
       927.693
 -14006047.655 8 -10981347.910 8  16726179.822    16726182.690        2991.604
      2338.377
 -11970407.662 9 -23206153.867 8  15419049.095    15419052.105        2050.901
      1583.508
 88  3 22  4  3 11.0800000  0  3G 6G 9G11
  -5363985.444 8 -13605861.476 8  14686370.992    14686372.664        1159.304
       902.049
 -14095947.771 7 -11051399.881 9  16709072.752    16709074.348        3025.598
      2343.094
 -12031869.172 9 -23254045.921 7  15407353.621    15407356.298        2047.831
      1578.643
 88  3 22  4  3 41.0800000  0  3G 6G 9G11
  -5398256.343 9 -13632566.077 7  14679849.585    14679851.471        1146.832
       884.955
 -14185765.314 7 -11121387.504 8  16691980.589    16691983.158        3007.305
      2322.389
 -12092839.075 9 -23301554.914 8  15395752.658    15395754.009        2028.325
      1588.063
 88  3 22  4  4 11.0800000  0  3G 6G 9G11
  -5432171.871 9 -13658993.751 8  14673394.915    14673396.387        1114.313
       882.836
 -14275498.342 8 -11191309.267 9  16674904.343    16674906.969        2997.744
      2339.937
 -12153316.486 9 -23348680.152 8  15384243.744    15384247.076        1987.784
      1575.629
 88  3 22  4  4 41.0800000  0  3G 6G 9G11
  -5465729.732 9 -13685142.711 8  14667010.339    14667011.567        1113.627
       874.702
 -14365144.615 8 -11261163.449 9  16657845.548    16657847.553        3005.256
      2335.774
 -12213300.357 9 -23395420.817 7  15372829.868    15372830.496        2018.485
      1561.797
 88  3 22  4  5 11.0800000  0  3G 6G 9G11
  -5498927.630 8 -13711011.205 8  14660692.809    14660692.950        1096.275
       869.197
 -14454701.837 9 -11330948.226 8  16640804.327    16640805.565        2989.857
      2315.604
 -12272788.798 9 -23441775.441 8  15361507.841    15361510.998        1984.490
      1534.158
 88  3 22  4  5 41.0800000  0  3G 6G 9G11
  -5531763.204 8 -13736597.363 8  14654444.229    14654444.842        1097.973
       866.351
 -14544167.912 9 -11400662.010 9  16623779.402    16623780.848        2995.854
      2316.300
 -12331780.939 9 -23487743.335 8  15350282.617    15350285.388        1972.106
      1526.087
 88  3 22  4  6 11.0800000  0  3G 6G 9G11
  -5564234.109 9 -13761899.360 7  14648264.875    14648265.359        1088.898
       844.323
 -14633540.457 9 -11470302.903 8  16606773.567    16606773.030        2973.215
      2331.213
 -12390275.925 8 -23533323.805 8  15339151.265    15339153.839        1942.633
      1503.034
 88  3 22  4  6 41.0800000  0  3G 6G 9G11
  -5596337.984 9 -13786915.352 8  14642154.867    14642158.298        1094.138
       833.492
 -14722817.421 9 -11539869.319 9  16589783.342    16589784.673        2981.883
      2313.684
 -12448271.904 8 -23578515.454 8  15328115.562    15328117.792        1920.337
      1488.232
 88  3 22  4  7 11.0800000  0  3G 6G 9G11
  -5628072.664 9 -13811643.668 9  14636117.124    14636118.594        1050.422
       825.191
 -14811996.691 9 -11609359.614 8  16572812.708    16572814.267        2961.397
      2317.903
 -12505767.926 8 -23623317.533 8  15317173.968    15317176.371        1901.581
      1484.262
 88  3 22  4  7 41.0800000  0  3G 6G 9G11
  -5659435.839 8 -13836082.493 8  14630148.431    14630149.558        1047.192
       808.196
 -14901075.899 8 -11678771.946 7  16555861.883    16555861.283        2975.759
      2311.826
 -12562762.727 8 -23667729.041 8  15306327.927    15306331.678        1897.961
      1471.381
 88  3 22  4  8 11.0800000  0  3G 6G 9G11
  -5690425.298 8 -13860230.118 8  14624250.745    14624252.373        1015.758
       793.339
 -14990052.962 8 -11748104.683 9  16538930.114    16538931.317        2967.386
      2306.886
 -12619255.487 9 -23711749.346 8  15295577.717    15295579.866        1885.656
      1452.951
 88  3 22  4  8 41.0800000  0  3G 6G 9G11
  -5721038.621 9 -13884084.651 8  14618426.404    14618428.104        1016.691
       783.813
 -15078925.317 8 -11817355.826 7  16522018.317    16522019.211        2965.886
      2302.170
 -12675244.515 8 -23755377.132 7  15284923.285    15284925.551        1848.870
      1447.277
 88  3 22  4  9 11.0800000  0  3G 6G 9G11
  -5751273.404 8 -13907644.216 9  14612672.872    14612673.613        1006.101
       775.903
 -15167690.844 9 -11886523.714 8  16505126.269    16505129.087        2941.126
      2298.665
 -12730728.860 9 -23798611.673 8  15274364.729    15274367.407        1849.780
      1433.911
 88  3 22  4  9 41.0800000  0  3G 6G 9G11
  -5781127.357 9 -13930907.039 8  14606990.769    14606992.928         991.093
       794.799
 -15256347.139 9 -11955606.512 8  16488256.132    16488257.262        2943.774
      2309.334
 -12785707.529 9 -23841452.164 8  15263902.380    15263905.390        1832.547
      1412.797
 88  3 22  4 10 11.0800000  0  3G 6G 9G11
  -5810598.303 9 -13953871.403 8  14601383.705    14601384.933         988.087
       763.773
 -15344892.039 9 -12024602.500 8  16471406.223    16471406.059        2942.577
      2320.264
 -12840179.434 8 -23883897.775 7  15253536.207    15253540.847        1819.756
      1391.881
 88  3 22  4 10 41.0800000  0  3G 6G 9G11
  -5839683.999 9 -13976535.567 8  14595847.649    14595849.736         968.382
       758.715
 -15433323.137 8 -12093509.818 8  16454578.378    16454579.459        2944.571
      2298.510
 -12894143.818 8 -23925947.923 8  15243267.842    15243271.034        1792.253
      1402.793
 88  3 22  4 11 11.0800000  0  3G 6G 9G11
  -5868382.054 9 -13998897.678 9  14590387.859    14590388.486         955.304
       721.209
 -15521638.017 9 -12162326.564 8  16437772.210    16437774.270        2930.991
      2290.506
 -12947599.258 9 -23967601.484 8  15233096.394    15233098.463        1757.644
      1382.182
 88  3 22  4 11 41.0800000  0  3G 6G 9G11
  -5896690.310 9 -14020956.066 8  14585000.669    14585001.012         951.317
       733.842
 -15609834.511 9 -12231051.066 7  16420989.256    16420990.844        2940.249
      2297.969
 -13000544.940 9 -24008857.843 7  15223020.651    15223022.570        1760.267
      1366.734
 88  3 22  4 12 11.0800000  0  3G 6G 9G11
  -5924606.418 9 -14042708.864 8  14579687.360    14579689.045         925.647
       710.180
 -15697910.225 9 -12299681.446 8  16404228.275    16404229.628        2939.228
      2308.645
 -13052979.519 8 -24049715.933 7  15213043.054    15213046.150        1732.804
      1346.999
 88  3 22  4 12 41.0800000  0  3G 6G 9G11
  -5952128.219 8 -14064154.422 8  14574450.877    14574453.165         935.121
       704.407
 -15785862.728 9 -12368215.830 7  16387491.828    16387493.787        2937.442
      2278.862
 -13104902.310 9 -24090175.226 8  15203162.279    15203164.119        1721.496
      1352.766
 88  3 22  4 13 11.0800000  0  3G 6G 9G11
  -5979253.283 9 -14085290.825 8  14569289.122    14569290.523         891.382
       676.364
 -15873689.663 8 -12436652.372 9  16370779.116    16370782.128        2927.107
      2273.344
 -13156312.076 9 -24130234.752 7  15193378.524    15193382.089        1715.699
      1320.187
 88  3 22  4 13 41.0800000  0  3G 6G 9G11
  -6005979.503 9 -14106116.445 9  14564203.584    14564204.240         888.208
       700.107
 -15961388.864 8 -12504989.364 8  16354089.656    16354091.530        2927.873
      2274.431
 -13207208.224 9 -24169894.085 8  15183694.052    15183697.368        1678.905
      1318.472
 88  3 22  4 14 11.0800000  0  3G 6G 9G11
  -6032304.667 8 -14126629.562 8  14559194.422    14559194.807         871.493
       694.682
 -16048957.730 9 -12573224.794 8  16337425.867    16337428.736        2911.860
      2271.946
 -13257589.852 8 -24209152.461 8  15174106.339    15174108.387        1684.495
      1318.658
 88  3 22  4 14 41.0800000  0  3G 6G 9G11
  -6058226.519 8 -14146828.394 9  14554260.679    14554262.394         865.345
       674.276
 -16136393.812 9 -12641356.766 8  16320787.610    16320788.920        2909.085
      2267.820
 -13307456.118 8 -24248009.282 7  15164616.874    15164620.238        1658.770
      1287.875
 88  3 22  4 15 11.0800000  0  3G 6G 9G11
  -6083742.832 8 -14166711.235 8  14549405.319    14549407.392         856.270
       665.279
 -16223694.871 8 -12709383.516 8  16304174.757    16304176.702        2901.031
      2266.329
 -13356805.920 9 -24286463.643 8  15155226.689    15155229.596        1634.488
      1279.375
 88  3 22  4 15 41.0800000  0  3G 6G 9G11
  -6108851.464 9 -14186276.407 8  14544627.261    14544627.745         821.686
       658.667
 -16310858.467 9 -12777303.165 8  16287588.334    16287590.152        2922.227
      2266.913
 -13405638.694 9 -24324515.137 7  15145934.211    15145935.461        1608.914
      1250.648
 88  3 22  4 16 11.0800000  0  3G 6G 9G11
  -6133550.284 9 -14205522.231 8  14539927.438    14539928.423         805.418
       643.338
 -16397882.467 9 -12845114.011 8  16271028.654    16271029.291        2898.950
      2279.595
 -13453953.518 9 -24362163.030 8  15136739.589    15136742.037        1609.177
      1247.548
 88  3 22  4 16 41.0800000  0  3G 6G 9G11
  -6157836.975 8 -14224446.934 8  14535305.522    14535308.024         792.699
       630.979
 -16484763.717 8 -12912813.656 8  16254494.837    16254497.106        2892.953
      2239.292
 -13501749.504 9 -24399406.644 7  15127645.011    15127646.714        1598.579
      1240.713
 88  3 22  4 17 11.0800000  0  3G 6G 9G11
  -6181709.339 8 -14243048.770 8  14530763.478    14530764.063         798.704
       606.602
 -16571500.404 8 -12980400.640 8  16237989.320    16237991.016        2891.669
      2262.047
 -13549026.080 9 -24436245.517 7  15118648.868    15118650.368        1583.380
      1224.818
 88  3 22  4 17 41.0800000  0  3G 6G 9G11
  -6205165.226 9 -14261326.089 8  14526299.112    14526301.213         791.048
       597.194
 -16658089.586 9 -13047872.689 9  16221513.216    16221513.574        2893.439
      2230.059
 -13595782.375 9 -24472678.966 7  15109750.891    15109751.587        1560.015
      1215.727
 88  3 22  4 18 11.0800000  0  3G 6G 9G11
  -6228202.626 9 -14279277.297 8  14521916.074    14521917.632         775.801
       584.034
 -16744529.297 9 -13115228.280 8  16205064.305    16205064.348        2877.116
      2253.280
 -13642017.805 8 -24508706.574 7  15100952.155    15100954.483        1524.529
      1199.049
 88  3 22  4 18 41.0800000  0  3G 6G 9G11
  -6250819.094 9 -14296900.514 8  14517611.712    14517612.668         723.888
       577.901
 -16830816.714 9 -13182465.183 8  16188643.756    16188645.509        2877.427
      2252.776
 -13687731.624 9 -24544327.713 7  15092253.342    15092255.712        1518.549
      1182.595
 88  3 22  4 19 11.0800000  0  3G 6G 9G11
  -6273012.669 9 -14314194.210 8  14513387.766    14513391.027         715.037
       575.900
 -16916949.636 8 -13249581.716 8  16172253.148    16172255.101        2859.158
      2231.879
 -13732923.231 9 -24579541.925 7  15083654.258    15083655.594        1490.112
      1169.447
 88  3 22  4 19 41.0800000  0  3G 6G 9G11
  -6294781.283 9 -14331156.774 8  14509245.527    14509249.332         724.215
       553.710
 -17002925.619 9 -13316575.946 9  16155891.897    16155893.963        2864.269
      2240.647
 -13777592.051 8 -24614348.791 7  15075152.992    15075157.000        1466.245
      1170.248
 88  3 22  4 20 11.0800000  0  3G 6G 9G11
  -6316122.747 9 -14347786.481 8  14505185.455    14505186.412         718.163
       543.495
 -17088741.945 9 -13383445.792 9  16139562.238    16139562.582        2861.741
      2236.496
 -13821737.354 9 -24648747.709 8  15066753.340    15066755.624        1471.915
      1145.828
 88  3 22  4 20 41.0800000  0  3G 6G 9G11
  -6337035.002 9 -14364081.739 7  14501206.486    14501206.513         683.673
       552.940
 -17174396.193 9 -13450189.324 8  16123262.458    16123264.139        2853.121
      2219.719
 -13865358.329 8 -24682738.063 7  15058451.893    15058453.899        1453.869
      1125.062
 88  3 22  4 21 11.0800000  0  3G 6G 9G11
  -6357515.978 9 -14380040.923 8  14497308.484    14497309.755         680.906
       539.002
 -17259886.003 8 -13516804.717 8  16106993.482    16106996.544        2834.581
      2224.137
 -13908454.756 9 -24716319.673 8  15050250.681    15050253.036        1442.776
      1135.122
 88  3 22  4 21 41.0800000  0  3G 6G 9G11
  -6377563.339 9 -14395662.246 8  14493493.558    14493494.629         669.176
       513.507
 -17345208.545 9 -13583289.784 8  16090757.024    16090759.672        2839.413
      2214.412
 -13951025.831 8 -24749491.932 8  15042150.388    15042153.681        1414.332
      1097.951
 88  3 22  4 22 11.0800000  0  3G 6G 9G11
  -6397175.183 9 -14410944.202 8  14489761.860    14489762.601         655.556
       518.397
 -17430361.178 9 -13649642.450 8  16074553.738    16074554.625        2838.057
      2199.263
 -13993070.969 9 -24782254.337 8  15034149.207    15034151.949        1388.726
      1081.571
 88  3 22  4 22 41.0800000  0  3G 6G 9G11
  -6416349.397 8 -14425885.140 8  14486112.861    14486113.861         624.727
       489.043
 -17515341.560 8 -13715860.893 8  16058382.473    16058384.469        2829.190
      2200.873
 -14034589.713 9 -24814606.586 8  15026247.529    15026250.980        1370.648
      1096.621
 88  3 22  4 23 11.0800000  0  4G 6G 9G11G13
  -6435083.698 9 -14440483.302 7  14482548.123    14482549.631         627.893
       481.773
 -17600147.004 9 -13781943.031 8  16042243.917    16042245.663        2825.203
      2196.268
 -14075581.675 8 -24846548.344 7  15018447.762    15018450.582        1336.757
      1049.545
 -35750622.471 8  45203991.638 8  18067404.271    18067407.291        3671.362
      2863.523
 88  3 22  4 23 41.0800000  0  4G 6G 9G11G13
  -6453376.255 9 -14454737.238 8  14479067.216    14479067.686         606.833
       480.692
 -17684775.458 8 -13847887.252 7  16026140.338    16026141.147        2807.994
      2200.500
 -14116046.339 8 -24878079.228 7  15010747.205    15010749.984        1349.086
      1052.149
 -35860625.986 9  45118274.656 7  18046470.984    18046475.247        3670.078
      2851.450
 88  3 22  4 24 11.0800000  0  4G 6G 9G11G13
  -6471225.173 9 -14468645.493 7  14475670.293    14475671.897         604.321
       471.427
 -17769223.620 9 -13913690.973 8  16010070.741    16010071.635        2811.750
      2187.066
 -14155983.278 8 -24909198.900 7  15003146.821    15003149.327        1312.699
      1037.211
 -35970414.329 9  45032725.349 7  18025578.935    18025582.068        3664.600
      2835.716
 88  3 22  4 24 41.0800000  0  4G 6G 9G11G13
  -6488628.080 8 -14482206.199 8  14472358.547    14472359.446         575.653
       459.292
 -17853489.360 9 -13979352.568 8  15994035.656    15994036.271        2804.278
      2184.164
 -14195392.254 9 -24939907.176 8  14995648.030    14995650.520        1316.319
      1035.714
 -36079985.165 9  44947345.529 8  18004728.111    18004731.242        3654.424
      2841.700
 88  3 22  4 25 11.0800000  0  4G 6G 9G11G13
  -6505582.972 9 -14495417.806 8  14469132.123    14469132.311         564.616
       452.767
 -17937569.841 8 -14044869.806 8  15978035.243    15978036.281        2812.946
      2184.437
 -14234272.794 8 -24970203.675 8  14988249.724    14988252.531        1287.077
      1014.121
 -36189335.968 8  44862137.171 8  17983919.102    17983921.342        3631.570
      2825.147
 88  3 22  4 25 41.0800000  0  4G 6G 9G11G13
  -6522087.855 9 -14508278.750 8  14465991.814    14465992.441         548.436
       422.078
 -18021462.624 9 -14110240.773 7  15962071.648    15962071.384        2804.804
      2195.224
 -14272624.276 9 -25000087.931 8  14980952.104    14980954.253        1271.886
       980.964
 -36298464.218 9  44777102.234 8  17963152.750    17963155.865        3642.439
      2831.460
 88  3 22  4 26 11.0800000  0  4G 6G 9G11G13
  -6538140.763 9 -14520787.515 8  14462936.011    14462938.073         528.030
       388.734
 -18105164.913 9 -14175463.310 8  15946143.427    15946144.543        2784.908
      2159.166
 -14310446.596 9 -25029559.868 8  14973753.519    14973757.599        1237.955
       977.720
 -36407367.956 9  44692242.222 8  17942429.353    17942431.747        3633.476
      2831.056
 88  3 22  4 26 41.0800000  0  4G 6G 9G11G13
  -6553739.731 9 -14532942.566 8  14459968.434    14459967.964         508.158
       396.943
 -18188674.423 9 -14240535.641 8  15930252.357    15930251.806        2786.041
      2174.775
 -14347739.225 8 -25058619.030 8  14966657.305    14966660.053        1235.969
       964.727
 -36516044.976 9  44607558.854 8  17921748.598    17921751.256        3613.747
      2822.220
 88  3 22  4 27 11.0800000  0  4G 6G 9G11G13
  -6568882.754 9 -14544742.316 8  14457086.600    14457086.830         509.043
       383.931
 -18271987.866 9 -14305455.191 8  15914397.577    15914397.755        2781.384
      2162.645
 -14384501.956 9 -25087265.295 7  14959662.005    14959664.726        1226.017
       946.515
 -36624493.022 9  44523053.933 8  17901110.973    17901115.316        3608.787
      2820.592
 88  3 22  4 27 41.0800000  0  4G 6G 9G11G13
  -6583567.864 9 -14556185.253 8  14454291.211    14454293.942         504.681
       366.377
 -18355103.057 9 -14370220.243 9  15898581.206    15898581.779        2766.950
      2147.838
 -14420734.481 8 -25115498.416 8  14952767.619    14952769.767        1198.235
       942.991
 -36732709.298 9  44438729.611 8  17880518.791    17880520.421        3596.100
      2815.522
 88  3 22  4 28 11.0800000  0  4G 6G 9G11G13
  -6597793.088 9 -14567269.838 8  14451584.586    14451587.592         455.336
       367.427
 -18438017.583 9 -14434828.933 9  15882803.452    15882803.594        2767.301
      2157.252
 -14456436.481 9 -25143318.140 8  14945973.560    14945976.008        1176.840
       922.387
 -36840692.626 9  44354586.796 9  17859969.994    17859972.667        3606.187
      2804.921
 88  3 22  4 28 41.0800000  0  4G 6G 9G11G13
  -6611556.481 9 -14577994.561 8  14448965.304    14448967.105         462.991
       335.408
 -18520728.489 9 -14499278.983 8  15867063.778    15867064.623        2753.147
      2153.294
 -14491607.802 8 -25170724.345 8  14939280.988    14939282.120        1171.808
       885.346
 -36948440.196 8  44270627.692 7  17839465.635    17839467.725        3583.524
      2795.495
 88  3 22  4 29 11.0800000  0  4G 6G 9G11G13
  -6624856.130 9 -14588357.920 8  14446434.882    14446435.491         443.486
       316.331
 -18603233.076 9 -14563568.243 9  15851362.848    15851364.779        2736.113
      2142.649
 -14526248.177 9 -25197716.826 8  14932688.959    14932691.292        1141.609
       884.333
 -37055949.087 8  44186854.558 7  17819007.043    17819010.581        3575.087
      2784.558
 88  3 22  4 29 41.0800000  0  4G 6G 9G11G13
  -6637689.962 9 -14598358.313 8  14443993.386    14443994.585         430.799
       321.451
 -18685528.728 8 -14627694.686 9  15835702.828    15835703.759        2748.665
      2141.792
 -14560357.316 9 -25224295.367 7  14926197.530    14926200.508        1128.228
       875.038
 -37163217.827 8  44103268.562 8  17798595.049    17798598.102        3565.279
      2801.503
 88  3 22  4 30 11.0800000  0  4G 6G 9G11G13
  -6650056.196 9 -14607994.348 8  14441639.962    14441640.779         402.705
       314.442
 -18767612.766 8 -14691656.241 8  15820082.373    15820084.004        2731.640
      2128.271
 -14593935.244 8 -25190473.461 8  14919807.814    14919810.648        1098.627
       862.131
 -37270243.768 8  44019871.777 7  17778228.179    17778232.875        3581.355
      2779.395
 88  3 22  4 30 41.0800000  0  4G 6G 9G11G13
  -6661952.873 9 -14617264.481 8  14439376.138    14439377.051         392.753
       313.827
 -18849482.461 8 -14755450.785 7  15804502.835    15804504.939        2729.598
      2123.741
 -14626981.818 9 -25216224.524 7  14913518.625    14913523.290        1091.961
       839.812
 -37377024.534 9  43936666.018 8  17757908.870    17757912.580        3569.394
      2770.291
 88  3 22  4 31 11.0800000  0  4G 6G 9G11G13
  -6673378.149 9 -14626167.282 8  14437202.119    14437202.546         388.168
       301.219
 -18931135.052 9 -14819076.156 7  15788965.364    15788966.672        2719.734
      2110.282
 -14659496.570 8 -25241560.673 7  14907331.955    14907334.030        1071.626
       839.153
 -37483557.774 9  43853653.127 7  17737636.206    17737638.832        3535.582
      2775.343
 88  3 22  4 31 41.0800000  0  4G 6G 9G11G13
  -6684330.107 9 -14634701.284 8  14435117.654    14435119.072         362.594
       271.648
 -19012568.191 9 -14882530.529 8  15773468.817    15773471.149        2719.112
      2118.509
 -14691479.955 9 -25266482.774 7  14901245.550    14901247.998        1074.353
       824.836
 -37589841.871 9  43770834.381 7  17717410.787    17717412.264        3548.262
      2753.850
 88  3 22  4 32 11.0800000  0  4G 6G 9G11G13
  -6694806.838 9 -14642864.982 7  14433123.238    14433125.993         344.245
       262.097
 -19093778.590 9 -14945811.339 8  15758014.049    15758016.976        2723.466
      2103.217
 -14722931.368 9 -25290990.359 7  14895260.403    14895262.964        1041.890
       811.626
 -37695874.365 9  43688211.668 8  17697234.135    17697237.036        3532.409
      2747.487
 88  3 22  4 32 41.0800000  0  4G 6G 9G11G13
  -6704806.598 9 -14650656.995 7  14431221.362    14431221.524         317.635
       250.720
 -19174763.777 9 -15008916.654 9  15742604.892    15742604.820        2691.018
      2108.070
 -14753850.998 8 -25315083.561 7  14889376.959    14889380.208        1021.021
       817.442
 -37801652.755 9  43605786.973 7  17677104.136    17677107.364        3527.082
      2723.949
 88  3 22  4 33 11.0800000  0  4G 6G 9G11G13
  -6714327.338 9 -14658075.767 7  14429409.443    14429409.762         294.844
       245.028
 -19255520.978 9 -15071844.342 8  15727238.275    15727237.229        2695.181
      2105.858
 -14784238.862 8 -25338762.390 8  14883594.227    14883596.503        1012.943
       796.265
 -37907175.260 9  43523561.687 7  17657024.426    17657028.246        3512.034
      2739.614
 88  3 22  4 33 41.0800000  0  4G 6G 9G11G13
  -6723367.421 9 -14665119.988 8  14427689.713    14427690.200         288.688
       224.616
 -19336047.604 9 -15134592.346 7  15711912.515    15711914.368        2686.298
      2079.983
 -14814094.743 9 -25362026.700 8  14877912.673    14877914.563         988.087
       762.444
 -38012439.846 9  43441537.368 7  17636993.209    17636997.063        3486.588
      2729.697
 88  3 22  4 34 11.0800000  0  4G 6G 9G11G13
  -6731925.029 8 -14671788.253 8  14426060.719    14426062.194         265.642
       219.601
 -19416340.630 9 -15197158.318 8  15696633.299    15696635.289        2675.516
      2095.698
 -14843418.870 8 -25384876.647 8  14872332.763    14872335.768         979.881
       759.256
 -38117443.750 9  43359716.173 8  17617011.734    17617015.359        3498.262
      2701.579
 88  3 22  4 34 41.0800000  0  4G 6G 9G11G13
  -6739998.225 9 -14678079.066 7  14424523.889    14424525.293         255.187
       210.299
 -19496397.504 9 -15259540.278 8  15681400.359    15681401.610        2666.481
      2070.166
 -14872210.897 9 -25407311.987 8  14866853.968    14866856.673         959.243
       741.982
 -38222184.848 9  43278099.746 7  17597080.209    17597083.698        3495.647
      2727.963
 88  3 22  4 35 11.0800000  0  4G 6G 9G11G13
  -6747585.265 9 -14683991.060 8  14423080.816    14423081.927         247.404
       196.909
 -19576215.408 9 -15321736.045 8  15666210.874    15666212.047        2651.521
      2062.293
 -14900471.154 8 -25429332.952 7  14861476.143    14861477.889         942.067
       735.843
 -38326661.291 9  43196689.578 8  17577198.199    17577201.869        3481.221
      2707.135
 88  3 22  4 35 41.0800000  0  4G 6G 9G11G13
  -6754684.500 9 -14689522.940 7  14421729.863    14421730.555         229.653
       184.462
 -19655791.457 9 -15383743.327 8  15651068.817    15651068.981        2648.037
      2050.344
 -14928199.586 9 -25450939.512 8  14856199.828    14856202.246         924.595
       727.330
 -38430870.608 9  43115487.546 8  17557368.276    17557372.561        3474.076
      2706.513
 88  3 22  4 36 11.0800000  0  4G 6G 9G11G13
  -6761294.024 9 -14694673.209 8  14420471.205    14420472.551         212.126
       166.542
 -19735123.104 9 -15445560.198 8  15635971.705    15635973.049        2637.526
      2060.497
 -14955396.379 9 -25472131.791 7  14851023.982    14851027.229         915.241
       709.248
 -38534810.655 9  43034495.332 8  17537589.013    17537592.930        3475.049
      2703.245
 88  3 22  4 36 41.0800000  0  4G 6G 9G11G13
  -6767412.351 9 -14699440.747 8  14419307.080    14419309.256         207.429
       149.448
 -19814207.533 9 -15507184.422 7  15620922.861    15620923.777        2644.919
      2055.955
 -14982061.965 9 -25492910.157 8  14845950.290    14845952.680         893.742
       683.454
 -38638479.812 8  42953714.244 9  17517861.632    17517863.824        3440.544
      2694.117
 88  3 22  4 37 11.0800000  0  4G 6G 9G11G13
  -6773037.522 9 -14703824.013 8  14418236.916    14418239.004         181.640
       151.281
 -19893041.789 9 -15568613.693 9  15605921.342    15605922.545        2617.439
      2039.526
 -15008196.035 9 -25513274.349 8  14840975.901    14840980.508         858.575
       672.077
 -38741875.200 9  42873146.405 7  17498185.740    17498190.012        3441.573
      2702.083
 88  3 22  4 37 41.0800000  0  4G 6G 9G11G13
  -6778167.876 9 -14707821.702 8  14417261.181    14417262.239         168.307
       116.974
 -19971623.362 9 -15629846.080 7  15590967.492    15590968.071        2626.841
      2027.328
 -15033798.714 9 -25533224.471 7  14836104.239    14836106.384         827.778
       659.978
 -38844994.942 9  42792793.382 8  17478562.087    17478565.521        3442.530
      2660.668
 88  3 22  4 38 11.0800000  0  4G 6G 9G11G13
  -6782801.782 9 -14711432.525 8  14416378.858    14416380.141         150.428
       111.562
 -20049949.323 9 -15690879.264 8  15576062.070    15576062.985        2605.119
      2040.284
 -15058870.130 8 -25552760.629 8  14831334.144    14831335.218         833.201
       642.934
 -38947836.728 9  42712656.942 8  17458992.901    17458996.021        3414.603
      2676.799
 88  3 22  4 38 41.0800000  0  4G 6G 9G11G13
  -6786937.522 9 -14714655.179 8  14415592.373    14415594.030         127.303
       117.472
 -20128016.731 9 -15751711.000 8  15561206.320    15561207.478        2614.879
      2038.096
 -15083410.764 9 -25571883.177 7  14826663.184    14826665.401         823.751
       627.139
 -39050398.942 8  42632738.379 8  17439475.296    17439479.370        3413.702
      2676.923
 88  3 22  4 39 11.0800000  0  4G 6G 9G11G13
  -6790573.541 9 -14717488.449 8  14414900.132    14414902.619         112.526
        84.309
 -20205822.756 9 -15812339.055 8  15546401.124    15546401.610        2590.143
      2004.300
 -15107420.829 9 -25590592.313 8  14822095.040    14822096.686         787.492
       628.238
 -39152679.579 9  42553039.198 7  17420011.397    17420015.622        3416.023
      2661.488
 88  3 22  4 39 41.0800000  0  4G 6G 9G11G13
  -6793708.141 9 -14719931.019 8  14414303.793    14414305.684          99.943
        77.598
 -20283364.684 9 -15872761.318 8  15531645.582    15531645.546        2577.001
      2012.172
 -15130900.614 9 -25608888.231 8  14817626.776    14817629.738         774.182
       600.028
 -39254676.171 9  42473561.385 7  17400603.229    17400605.801        3401.470
      2642.772
 88  3 22  4 40 11.0800000  0  4G 6G 9G11G13
  -6796339.815 9 -14721981.674 7  14413801.530    14413804.619          61.522
        58.086
 -20360639.980 8 -15932975.816 8  15516939.543    15516941.661        2570.757
      1984.919
 -15153850.360 8 -25626771.130 8  14813259.281    14813262.157         741.671
       580.566
 -39356386.510 8  42394306.599 7  17381247.725    17381250.220        3397.307
      2643.021
 88  3 22  4 40 41.0800000  0  4G 6G 9G11G13
  -6798466.812 8 -14723639.083 8  14413398.227    14413399.845          48.763
        49.337
 -20437645.472 9 -15992980.077 9  15502286.496    15502287.440        2574.361
      1993.873
 -15176270.311 8 -25644241.205 8  14808991.871    14808995.650         759.813
       588.458
 -39457808.313 9  42315276.629 8  17361947.671    17361951.638        3381.239
      2624.895
 88  3 22  4 41 11.0800000  0  4G 6G 9G11G13
  -6800087.653 9 -14724902.086 8  14413089.653    14413090.577          36.228
        45.423
 -20514378.522 9 -16052772.039 9  15487685.139    15487685.032        2555.271
      1987.355
 -15198160.873 9 -25661298.764 8  14804827.527    14804831.175         726.687
       550.249
 -39558940.150 9  42236472.641 8  17342703.212    17342706.270        3369.285
      2619.924
 88  3 22  4 41 41.0800000  0  4G 6G 9G11G13
  -6801200.860 9 -14725769.540 7  14412877.455    14412878.498          17.998
        11.253
 -20590836.361 9 -16112349.564 8  15473135.325    15473136.112        2549.450
      1993.177
 -15219522.400 8 -25677944.100 7  14800762.095    14800765.457         703.649
       538.990
 -39659779.986 8  42157896.148 8  17323514.349    17323518.040        3354.493
      2628.536
 88  3 22  4 42 11.0800000  0  4G 6G 9G11G13
  -6801804.688 8 -14726240.061 7  14412762.063    14412764.085           8.301
        10.172
 -20667015.879 9 -16171710.204 8  15458638.342    15458638.914        2535.128
      1975.045
 -15240355.014 8 -25694177.300 6  14796798.282    14796800.501         699.223
       518.720
 -39760325.774 9  42079548.805 8  17304380.132    17304384.738        3344.955
      2609.852
 88  3 22  4 42 41.0800000  0  4G 6G 9G11G13
  -6801897.721 8 -14726312.576 8  14412745.914    14412746.407           7.249
       -15.193
 -20742914.541 9 -16230852.006 8  15444195.539    15444197.522        2528.995
      1960.958
 -15260659.276 9 -25709998.773 8  14792934.199    14792936.918         685.683
       518.839
 -39860575.242 8  42001432.355 9  17285303.974    17285307.641        3334.493
      2586.388
 88  3 22  4 43 11.0800000  0  4G 6G 9G11G13
  -6801478.253 9 -14725985.720 8  14412825.140    14412826.847         -28.181
       -20.126
 -20818529.338 9 -16289772.601 8  15429807.625    15429806.830        2499.729
      1951.097
 -15280435.525 8 -25725408.821 8  14789171.510    14789173.040         635.732
       526.537
 -39960526.544 8  41923548.246 7  17266284.486    17266287.095        3334.126
      2585.568
 88  3 22  4 43 41.0800000  0  4G 6G 9G11G13
  -6800545.053 9 -14725258.552 8  14413002.263    14413004.632         -24.298
       -35.276
 -20893857.253 9 -16348469.667 8  15415472.200    15415472.794        2495.272
      1958.846
 -15299684.252 8 -25740407.844 7  14785508.948    14785511.181         633.124
       492.728
 -40060177.718 8  41845898.028 8  17247320.871    17247324.298        3332.922
      2571.208
 88  3 22  4 44 11.0800000  0  4G 6G 9G11G13
  -6799096.598 9 -14724129.892 7  14413278.658    14413278.621         -58.277
       -42.993
 -20968895.759 9 -16406941.226 8  15401192.578    15401193.831        2507.114
      1925.844
 -15318406.077 9 -25754996.253 8  14781945.416    14781948.263         638.220
       454.203
 -40159526.279 8  41768483.588 8  17228415.464    17228418.523        3314.597
      2564.522
 88  3 22  4 44 41.0800000  0  4G 6G 9G11G13
  -6797131.271 9 -14722598.476 8  14413653.065    14413653.656         -74.289
       -54.806
 -21043641.852 9 -16465184.937 9  15386968.340    15386970.007        2487.425
      1935.177
 -15336601.236 8 -25769174.287 8  14778483.630    14778485.304         586.458
       451.226
 -40258570.866 8  41691306.011 8  17209568.081    17209571.512        3330.354
      2575.701
 88  3 22  4 45 11.0800000  0  4G 6G 9G11G13
  -6794647.840 9 -14720663.350 9  14414125.140    14414126.219         -89.632
       -66.835
 -21118092.835 9 -16523198.673 7  15372800.677    15372802.295        2482.178
      1941.938
 -15354270.446 8 -25782942.482 8  14775120.394    14775123.227         582.575
       443.279
 -40357309.323 8  41614366.974 9  17190778.956    17190782.493        3299.573
      2558.930
 88  3 22  4 45 41.0800000  0  4G 6G 9G11G13
  -6791644.784 9 -14718323.306 8  14414696.179    14414696.459        -115.501
       -83.221
 -21192245.669 9 -16580980.082 8  15358690.403    15358691.841        2463.909
      1930.399
 -15371414.131 9 -25796301.191 8  14771858.632    14771860.650         555.183
       424.464
 -40455739.413 9  41537668.244 7  17172047.589    17172051.346        3282.636
      2556.171
 88  3 22  4 46 11.0800000  0  4G 6G 9G11G13
  -6788120.745 9 -14715577.326 8  14415366.202    14415369.046        -115.102
      -104.690
 -21266097.432 9 -16638526.897 8  15344637.129    15344637.099        2463.024
      1924.863
 -15388032.995 8 -25809250.943 7  14768696.240    14768698.358         550.318
       426.881
 -40553859.495 9  41461211.070 7  17153376.515    17153379.889        3294.390
      2538.275
 88  3 22  4 46 41.0800000  0  4G 6G 9G11G13
  -6784074.311 8 -14712424.274 7  14416137.410    14416139.622        -147.135
      -109.965
 -21339645.537 9 -16695837.086 8  15330640.757    15330641.565        2445.990
      1895.701
 -15404127.514 8 -25821792.118 8  14765633.363    14765636.340         534.019
       425.147
 -40651667.385 8  41384997.170 9  17134764.713    17134767.218        3257.987
      2541.307
 88  3 22  4 47 11.0800000  0  4G 6G 9G11G13
  -6779504.062 9 -14708863.049 8  14417006.377    14417008.279        -156.082
      -124.891
 -21412886.825 9 -16752908.211 8  15316703.304    15316704.306        2428.774
      1883.976
 -15419697.958 8 -25833924.911 8  14762669.924    14762673.430         510.191
       396.756
 -40749161.243 9  41309027.947 8  17116212.337    17116214.655        3243.569
      2516.993
 88  3 22  4 47 41.0800000  0  4G 6G 9G11G13
  -6774408.692 9 -14704892.637 7  14417977.114    14417976.997        -172.852
      -148.093
 -21485818.629 9 -16809738.179 8  15302825.219    15302825.899        2433.048
      1887.630
 -15434745.263 8 -25845650.068 8  14759806.264    14759809.512         492.576
       382.782
 -40846339.824 8  41233304.388 8  17097719.470    17097721.029        3242.868
      2528.358
 88  3 22  4 48 11.0800000  0  4G 6G 9G11G13
  -6768786.875 9 -14700512.007 7  14419045.735    14419047.314        -196.073
      -149.560
 -21558437.964 9 -16866324.661 8  15289006.696    15289008.270        2422.123
      1877.308
 -15449270.033 8 -25856968.058 8  14757042.177    14757046.127         489.307
       345.169
 -40943200.728 9  41157828.374 8  17079288.237    17079291.364        3221.018
      2517.471
 88  3 22  4 48 41.0800000  0  4G 6G 9G11G13
  -6762637.349 9 -14695720.168 7  14420216.560    14420217.030        -219.048
      -162.956
 -21630742.025 8 -16922665.464 8  15275247.514    15275248.723        2406.541
      1878.551
 -15463272.888 8 -25867879.366 7  14754378.158    14754380.419         461.460
       369.111
 -41039741.581 9  41082601.748 7  17060916.386    17060919.465        3223.450
      2523.815
 88  3 22  4 49 11.0800000  0  4G 6G 9G11G13
  -6755958.724 9 -14690516.054 8  14421487.647    14421488.353        -232.054
      -177.447
 -21702727.732 9 -16978758.206 9  15261548.449    15261549.563        2401.868
      1870.194
 -15476754.611 9 -25830077.122 9  14751812.725    14751827.421         453.207
       353.160
 -41135961.027 9  41007625.578 7  17042606.239    17042609.566        3199.846
      2490.957
 88  3 22  4 49 41.0800000  0  4G 6G 9G11G13
  -6748749.746 9 -14684898.685 7  14422858.713    14422860.288        -257.643
      -187.749
 -21774392.298 8 -17034600.722 8  15247911.825    15247911.689        2388.758
      1847.731
 -15489715.763 9 -25840176.175 7  14749345.526    14749350.305         405.416
       345.586
 -41231857.015 9  40932901.436 7  17024357.697    17024361.175        3203.754
      2478.374
 88  3 22  4 50 11.0800000  0  4G 6G 9G11G13
  -6741009.294 9 -14678867.173 8  14424332.780    14424333.353        -250.092
      -207.721
 -21845733.023 9 -17090190.881 7  15234335.791    15234336.728        2379.317
      1860.500
 -15502157.068 8 -25849870.676 8  14746977.696    14746980.829         429.682
       309.043
 -41327427.614 9  40858430.868 8  17006171.589    17006175.671        3184.304
      2480.431
 88  3 22  4 50 41.0800000  0  4G 6G 9G11G13
  -6732735.999 8 -14672420.464 8  14425906.192    14425909.022        -291.096
      -216.855
 -21916746.836 9 -17145526.313 8  15220822.089    15220823.549        2367.555
      1850.477
 -15514079.002 9 -25859160.491 9  14744710.367    14744712.741         388.869
       304.544
 -41422670.956 8  40784215.302 8  16988047.987    16988051.204        3141.593
      2465.064
 88  3 22  4 51 11.0800000  0  4G 6G 9G11G13
  -6723928.680 9 -14665557.616 8  14427582.324    14427583.498        -295.290
      -242.698
 -21987430.902 9 -17200604.783 8  15207371.362    15207371.641        2366.183
      1845.954
 -15525482.559 9 -25868046.365 8  14742539.493    14742542.955         366.860
       297.646
 -41517584.994 9  40710256.323 7  16969986.012    16969988.342        3163.786
      2460.230
 88  3 22  4 51 41.0800000  0  4G 6G 9G11G13
  -6714586.252 9 -14658277.808 7  14429360.401    14429360.417        -317.140
      -223.410
 -22057782.254 9 -17255424.017 8  15193984.107    15193984.751        2352.435
      1831.407
 -15536368.768 8 -25876529.107 7  14740468.829    14740470.646         377.347
       306.663
 -41612168.830 8  40636554.666 8  16951986.376    16951990.215        3149.289
      2454.861
 88  3 22  4 52 11.0800000  0  4G 6G 9G11G13
  -6704707.275 9 -14650579.913 8  14431240.289    14431242.207        -334.460
      -269.827
 -22127798.075 9 -17309981.776 8  15180659.196    15180661.865        2317.922
      1821.254
 -15546737.955 8 -25884608.989 8  14738495.196    14738497.385         338.870
       257.568
 -41706419.885 8  40563112.313 7  16934051.699    16934054.429        3143.005
      2441.334
 88  3 22  4 52 41.0800000  0  4G 6G 9G11G13
  -6694290.745 9 -14642463.157 7  14433222.705    14433223.927        -356.023
      -285.151
 -22197475.415 9 -17364275.800 8  15167400.830    15167401.394        2311.662
      1820.906
 -15556590.995 9 -25892286.672 9  14736619.765    14736623.714         304.979
       250.670
 -41800336.738 8  40489930.375 7  16916180.020    16916183.608        3136.625
      2426.439
 88  3 22  4 53 11.0800000  0  4G 6G 9G11G13
  -6683335.517 9 -14633926.614 8  14435306.965    14435309.466        -367.211
      -289.917
 -22266811.343 9 -17418303.796 8  15154207.262    15154207.872        2310.012
      1792.217
 -15565928.680 8 -25899562.776 8  14734843.827    14734845.229         300.266
       238.926
 -41893917.728 8  40417010.144 7  16898371.162    16898373.991        3104.592
      2424.675
 88  3 22  4 53 41.0800000  0  4G 6G 9G11G13
  -6671840.587 9 -14624969.532 8  14437494.750    14437496.142        -385.752
      -307.868
 -22335802.987 9 -17472063.498 7  15141078.365    15141079.503        2292.484
      1775.993
 -15574751.994 9 -25906438.076 8  14733163.918    14733167.738         281.160
       236.341
 -41987160.542 9  40344353.430 8  16880628.937    16880632.224        3104.784
      2401.267
 88  3 22  4 54 11.0800000  0  4G 6G 9G11G13
  -6659804.702 9 -14615590.936 8  14439785.375    14439785.724        -418.223
      -311.565
 -22404447.401 8 -17525552.644 8  15128016.360    15128016.196        2281.001
      1779.796
 -15583062.239 8 -25912913.578 8  14731582.718    14731586.196         264.637
       211.865
 -42080063.521 9  40271961.512 8  16862948.961    16862952.557        3095.845
      2400.217
 88  3 22  4 54 41.0800000  0  4G 6G 9G11G13
  -6647226.880 9 -14605790.044 8  14442178.875    14442179.217        -438.510
      -345.300
 -22472741.848 9 -17578769.075 8  15115020.115    15115019.929        2274.645
      1776.751
 -15590859.828 8 -25918989.602 8  14730098.767    14730101.885         252.245
       202.917
 -42172624.772 9  40199835.884 8  16845335.530    16845338.749        3088.508
      2397.433
 88  3 22  4 55 11.0800000  0  4G 6G 9G11G13
  -6634106.041 9 -14595566.027 8  14444675.391    14444676.351        -439.299
      -340.820
 -22540683.261 9 -17631710.430 8  15102090.937    15102091.932        2258.760
      1768.331
 -15598145.447 9 -25924666.701 8  14728712.972    14728715.463         244.685
       180.566
 -42264842.659 9  40127977.823 7  16827787.681    16827790.331        3067.264
      2400.435
 88  3 22  4 55 41.0800000  0  4G 6G 9G11G13
  -6620441.103 9 -14584918.032 8  14447276.136    14447277.225        -463.589
      -385.652
 -22608268.688 9 -17684374.379 8  15089228.856    15089229.714        2253.641
      1751.921
 -15604920.628 8 -25929946.044 7  14727422.862    14727426.010         208.617
       154.816
 -42356715.595 9  40056388.564 8  16810304.238    16810308.304        3068.516
      2380.215
 88  3 22  4 56 11.0800000  0  4G 6G 9G11G13
  -6606231.044 9 -14573845.278 8  14449979.695    14449980.781        -474.522
      -373.138
 -22675495.225 8 -17736758.691 8  15076436.451    15076438.991        2235.276
      1738.418
 -15611186.010 9 -25934828.163 8  14726231.479    14726233.940         207.453
       148.590
 -42448242.132 8  39985069.212 7  16792886.713    16792890.282        3049.019
      2372.112
 88  3 22  4 56 41.0800000  0  4G 6G 9G11G13
  -6591474.961 9 -14562347.039 6  14452788.641    14452789.540        -500.096
      -393.587
 -22742359.940 9 -17788861.063 7  15063712.549    15063714.524        2225.595
      1737.467
 -15616942.213 9 -25939313.492 8  14725136.255    14725138.544         186.999
       151.045
 -42539420.569 9  39914021.111 7  16775536.184    16775539.682        3043.860
      2369.266
 88  3 22  4 57 11.0800000  0  4G 6G 9G11G13
  -6576171.945 9 -14550422.611 8  14455700.360    14455700.536        -529.234
      -408.128
 -22808860.036 9 -17840679.299 8  15051059.489    15051059.003        2209.272
      1726.773
 -15622190.463 8 -25943403.023 8  14724137.386    14724140.190         187.716
       130.856
 -42630248.705 9  39843245.959 8  16758251.701    16758255.537        3038.357
      2359.740
 88  3 22  4 57 41.0800000  0  4G 6G 9G11G13
  -6560320.854 9 -14538071.131 8  14458715.547    14458718.359        -541.196
      -414.379
 -22874992.721 9 -17892211.249 8  15038474.043    15038475.023        2202.493
      1712.444
 -15626931.654 9 -25947097.444 8  14723233.959    14723236.535         148.363
       115.228
 -42720724.915 8  39772745.036 7  16741034.242    16741038.904        3025.981
      2350.494
 88  3 22  4 58 11.0800000  0  4G 6G 9G11G13
  -6543920.814 8 -14525291.881 8  14461837.755    14461838.082        -557.312
      -425.377
 -22940754.843 9 -17943454.457 8  15025959.885    15025960.808        2179.049
      1705.435
 -15631166.748 8 -25950397.512 8  14722428.980    14722431.327         140.117
       103.087
 -42810847.686 9  39702519.531 6  16723887.051    16723887.488        2992.760
      2350.227
 88  3 22  4 58 41.0800000  0  4G 6G 9G11G13
  -6526971.014 9 -14512084.255 8  14465062.233    14465064.649        -566.147
      -454.116
 -23006143.638 9 -17994406.753 8  15013516.078    15013517.473        2167.055
      1686.775
 -15634897.180 9 -25953304.318 9  14721719.172    14721721.676         138.403
        89.758
 -42900615.425 8  39632570.660 8  16706803.999    16706805.910        2992.672
      2316.580
 88  3 22  4 59 11.0800000  0  4G 6G 9G11G13
  -6509470.662 9 -14498447.624 8  14468392.691    14468393.992        -590.748
      -464.984
 -23071156.222 9 -18045065.897 9  15001145.210    15001145.510        2163.132
      1697.289
 -15638123.731 9 -25955818.509 7  14721104.961    14721107.380          99.281
        82.271
 -42990026.275 9  39562899.887 8  16689790.167    16689791.377        2976.835
      2314.759
 88  3 22  4 59 41.0800000  0  4G 6G 9G11G13
  -6491418.681 9 -14484381.162 8  14471828.578    14471829.489        -620.381
      -489.609
 -23135789.735 9 -18095429.659 8  14988846.188    14988846.653        2138.116
      1679.679
 -15640847.470 8 -25957940.898 8  14720587.270    14720589.015          88.420
        68.637
 -43079078.601 8  39493508.477 8  16672843.217    16672846.294        2973.087
      2318.966
 88  3 22  5  0 11.0800000  0  4G 6G 9G11G13
  -6472814.380 9 -14469884.319 8  14475366.344    14475368.881        -637.000
      -492.393
 -23200041.329 9 -18145495.828 8  14976618.571    14976620.976        2137.327
      1653.569
 -15643069.791 9 -25959672.559 9  14720163.668    14720165.571          70.422
        61.796
 -43167771.081 9  39424397.475 8  16655965.496    16655968.809        2956.309
      2302.325
 88  3 22  5  0 41.0800000  0  4G 6G 9G11G13
  -6453656.859 8 -14454956.405 8  14479012.836    14479014.966        -631.242
      -493.996
 -23263907.758 9 -18195261.862 8  14964465.325    14964466.584        2111.825
      1655.638
 -15644791.696 9 -25961014.300 7  14719835.327    14719839.291          40.255
        25.986
 -43256102.030 8  39355568.202 8  16639155.947    16639159.760        2952.649
      2305.705
 88  3 22  5  1 11.0800000  0  4G 6G 9G11G13
  -6433945.504 9 -14439596.933 8  14482765.193    14482766.600        -655.157
      -509.748
 -23327386.666 9 -18244725.949 7  14952386.184    14952387.255        2111.960
      1660.783
 -15646014.316 9 -25961966.978 7  14719603.540    14719607.418          25.271
        27.887
 -43344070.095 8  39287021.688 8  16622417.769    16622419.206        2931.940
      2278.477
 88  3 22  5  1 41.0800000  0  4G 6G 9G11G13
  -6413679.521 9 -14423805.268 8  14486620.665    14486622.251        -680.077
      -520.777
 -23390475.017 9 -18293885.670 8  14940381.274    14940381.198        2104.233
      1630.429
 -15646738.816 9 -25962531.516 8  14719466.309    14719467.926           7.623
        33.753
 -43431673.655 9  39218759.205 9  16605746.902    16605749.119        2906.454
      2280.571
 88  3 22  5  2 11.0800000  0  4G 6G 9G11G13
  -6392857.973 8 -14407580.701 7  14490583.535    14490584.757        -706.791
      -547.577
 -23453169.681 9 -18342738.666 8  14928450.879    14928451.499        2085.079
      1622.512
 -15646966.098 9 -25962708.603 9  14719423.722    14719424.166          -6.204
         8.538
 -43518910.823 8  39150782.219 7  16589144.741    16589148.282        2896.310
      2263.116
 88  3 22  5  2 41.0800000  0  4G 6G 9G11G13
  -6371480.252 9 -14390922.761 8  14494650.471    14494652.462        -725.028
      -564.510
 -23515467.899 9 -18391282.711 7  14916595.307    14916596.145        2065.478
      1615.081
 -15646697.350 9 -25962499.173 7  14719473.885    14719476.961          -7.217
       -10.439
 -43605780.195 9  39083091.814 9  16572615.319    16572616.687        2885.186
      2259.879
 88  3 22  5  3 11.0800000  0  4G 6G 9G11G13
  -6349545.744 8 -14373830.944 8  14498825.479    14498826.488        -743.728
      -573.085
 -23577366.827 8 -18439515.641 8  14904817.011    14904816.603        2044.737
      1610.339
 -15645933.989 9 -25961904.350 8  14719618.758    14719621.734         -25.733
       -32.318
 -43692280.693 9  39015688.859 8  16556155.026    16556157.043        2873.711
      2247.681
 88  3 22  5  3 41.0800000  0  4G 6G 9G11G13
  -6327053.716 9 -14356304.705 8  14503105.939    14503107.378        -758.672
      -583.797
 -23638863.600 8 -18487435.183 7  14893114.398    14893114.719        2058.556
      1586.323
 -15644677.337 9 -25960925.131 8  14719857.486    14719860.605         -55.494
       -38.544
 -43778410.397 8  38948574.828 8  16539764.233    16539766.786        2870.481
      2243.748
 88  3 22  5  4 11.0800000  0  4G 6G 9G11G13
  -6304003.428 8 -14338343.458 8  14507491.676    14507492.510        -788.608
      -598.431
 -23699955.229 9 -18535039.075 7  14881488.200    14881488.604        2038.740
      1597.384
 -15642928.355 9 -25959562.280 9  14720191.076    14720192.422         -56.195
       -38.979
 -43864167.888 9  38881750.831 8  16523444.877    16523449.420        2857.866
      2221.204
 88  3 22  5  4 41.0800000  0  4G 6G 9G11G13
  -6280394.434 9 -14319946.864 8  14511983.434    14511985.616        -799.318
      -629.065
 -23760639.068 9 -18582325.156 8  14869940.619    14869941.238        2024.442
      1574.094
 -15640688.396 9 -25957816.841 8  14720616.101    14720619.263         -97.447
       -59.019
 -43949551.563 9  38815218.119 8  16507197.119    16507200.347        2828.871
      2211.343
 88  3 22  5  5 11.0800000  0  4G 6G 9G11G13
  -6256226.060 9 -14258836.378 7  14516582.844    14516584.153        -816.821
      -618.800
 -23820912.012 8 -18629291.082 7  14858470.167    14858472.586        2006.938
      1561.853
 -15637958.630 9 -25955689.745 9  14721136.752    14721136.839         -98.132
       -65.823
 -44034559.832 8  38748977.948 8  16491019.828    16491023.920        2828.448
      2218.010
 88  3 22  5  5 41.0800000  0  4G 6G 9G11G13
  -6231497.620 9 -14239567.489 6  14521289.558    14521292.281        -835.354
      -661.588
 -23880771.354 9 -18675934.710 8  14847080.549    14847080.835        2005.455
      1551.967
 -15634740.423 9 -25953182.039 8  14721748.550    14721750.811        -120.907
       -81.717
 -44119191.237 9  38683031.421 8  16474915.241    16474919.318        2821.702
      2195.318
 88  3 22  5  6 11.0800000  0  4G 6G 9G11G13
  -6206208.615 9 -14219861.778 8  14526101.428    14526102.598        -848.527
      -664.316
 -23940214.043 9 -18722253.674 8  14835768.764    14835770.978        1987.082
      1550.022
 -15631035.153 9 -25950294.798 7  14722454.212    14722456.301        -135.588
      -105.392
 -44203444.339 9  38617379.669 8  16458882.309    16458886.366        2814.828
      2174.390
 88  3 22  5  6 41.0800000  0  4G 6G 9G11G13
  -6180358.551 9 -14199718.894 7  14531021.068    14531023.337        -877.993
      -678.968
 -23999237.440 8 -18768245.939 7  14824538.046    14824537.048        1941.939
      1521.439
 -15626844.180 8 -25947029.094 7  14723250.893    14723253.054        -149.782
      -101.372
 -44287318.553 9  38552023.170 8  16442923.389    16442925.707        2777.739
      2177.527
 88  3 22  5  7 11.0800000  0  4G 6G 9G11G13
  -6153946.904 9 -14179138.408 8  14536046.556    14536048.762        -881.222
      -696.634
 -24057838.499 9 -18813909.091 7  14813386.127    14813386.582        1950.256
      1511.292
 -15622168.663 8 -25943385.820 7  14724140.672    14724143.763        -150.484
      -115.682
 -44370811.653 8  38486963.638 9  16427033.754    16427038.054        2769.645
      2168.020
 88  3 22  5  7 41.0800000  0  4G 6G 9G11G13
  -6126973.092 9 -14158119.868 8  14541179.267    14541182.362        -905.719
      -713.815
 -24116014.754 9 -18859241.244 7  14802315.026    14802316.650        1931.636
      1523.309
 -15617010.439 9 -25939366.416 8  14725122.809    14725124.670        -168.538
      -124.462
 -44453921.939 9  38422202.395 9  16411218.178    16411221.269        2757.205
      2158.414
 88  3 22  5  8 11.0800000  0  4G 6G 9G11G13
  -6099436.892 9 -14136663.098 8  14546419.380    14546421.395        -916.828
      -727.118
 -24173763.211 9 -18904240.030 7  14791325.685    14791326.754        1918.335
      1499.343
 -15611370.374 9 -25934971.545 7  14726196.535    14726198.022        -183.626
      -151.287
 -44536648.794 9  38357739.936 8  16395476.296    16395479.593        2746.727
      2140.966
 88  3 22  5  8 41.0800000  0  4G 6G 9G11G13
  -6071337.818 8 -14114767.737 8  14551766.535    14551767.540        -936.293
      -727.069
 -24231080.732 9 -18948903.043 8  14780419.281    14780419.810        1900.457
      1480.341
 -15605249.987 9 -25930202.408 8  14727360.484    14727362.516        -233.800
      -172.470
 -44618990.516 8  38293577.584 8  16379807.439    16379809.378        2730.148
      2146.751
 88  3 22  5  9 11.0800000  0  4G 6G 9G11G13
  -6042675.292 9 -14092433.316 8  14557221.120    14557222.321        -980.830
      -752.825
 -24287964.877 9 -18993228.339 7  14769594.759    14769595.156        1881.478
      1480.074
 -15598650.717 9 -25925060.110 8  14728616.675    14728618.506        -233.250
      -176.807
 -44700945.854 8  38229716.298 9  16364211.174    16364214.836        2740.116
      2137.318
 88  3 22  5  9 41.0800000  0  4G 6G 9G11G13
  -6013449.134 9 -14069659.710 8  14562783.348    14562783.885        -987.369
      -762.052
 -24344412.777 8 -19037213.712 7  14758852.177    14758853.884        1884.516
      1453.963
 -15591574.069 8 -25919545.835 7  14729963.039    14729964.327        -242.739
      -181.759
 -44782513.217 8  38166157.364 9  16348688.566    16348691.857        2714.487
      2112.158
 88  3 22  5 10 11.0800000  0  4G 6G 9G11G13
  -5983658.886 8 -14046446.557 8  14568451.864    14568452.862       -1000.231
      -770.994
 -24400421.635 9 -19080856.992 8  14748194.139    14748196.114        1863.862
      1440.939
 -15584021.384 9 -25913660.608 8  14731399.639    14731402.300        -266.407
      -205.080
 -44863691.604 8  38102901.493 8  16333241.423    16333244.256        2700.731
      2109.375
 88  3 22  5 10 41.0800000  0  4G 6G 9G11G13
  -5953304.201 9 -14022793.570 7  14574227.855    14574229.605       -1013.692
      -787.081
 -24455988.456 9 -19124155.788 7  14737620.252    14737622.170        1849.445
      1452.994
 -15575994.290 9 -25907405.718 9  14732928.527    14732930.216        -270.753
      -209.759
 -44944479.564 9  38039949.873 7  16317869.021    16317872.346        2693.482
      2075.690
 88  3 22  5 11 11.0800000  0  4G 6G 9G11G13
  -5922384.810 9 -13998700.556 8  14580111.652    14580113.591       -1030.630
      -797.719
 -24511110.748 9 -19167108.223 7  14727129.418    14727132.545        1837.045
      1426.585
 -15567494.533 8 -25900782.536 7  14734544.859    14734547.850        -300.649
      -227.897
 -45024875.812 8  37977303.464 7  16302569.562    16302572.876        2678.355
      2081.413
 88  3 22  5 11 41.0800000  0  4G 6G 9G11G13
  -5890900.328 8 -13974167.217 8  14586103.566    14586104.489       -1079.257
      -813.571
 -24565785.506 9 -19209711.922 8  14716727.187    14716727.960        1828.145
      1424.560
 -15558522.996 9 -25893791.713 8  14736252.612    14736254.373        -307.204
      -246.712
 -45104879.406 9  37914963.022 8  16287346.587    16287347.568        2647.287
      2063.449
 88  3 22  5 12 11.0800000  0  4G 6G 9G11G13
  -5858850.608 9 -13949193.423 8  14592201.352    14592202.965       -1044.146
      -828.329
 -24620010.047 8 -19251964.794 8  14706408.182    14706409.170        1786.663
      1391.726
 -15549081.494 9 -25886434.695 8  14738049.054    14738052.618        -312.993
      -246.942
 -45184488.845 8  37852929.712 8  16272195.475    16272198.973        2633.786
      2064.337
 88  3 22  5 12 41.0800000  0  4G 6G 9G11G13
  -5826235.378 9 -13923778.972 8  14598408.742    14598409.861       -1084.991
      -852.693
 -24673781.495 9 -19293864.629 8  14696175.772    14696177.776        1808.975
      1399.854
 -15539171.353 8 -25878712.481 7  14739933.991    14739937.353        -322.308
      -236.229
 -45263703.262 9  37791204.216 7  16257121.484    16257124.732        2646.944
      2060.628
 88  3 22  5 13 11.0800000  0  4G 6G 9G11G13
  -5793054.305 9 -13897923.609 7  14604722.059    14604723.936       -1127.933
      -853.973
 -24727097.101 8 -19335409.244 8  14686030.024    14686030.915        1769.087
      1386.208
 -15528794.103 9 -25870626.308 7  14741909.380    14741911.426        -353.232
      -275.028
 -45342521.604 8  37729787.358 8  16242122.868    16242125.873        2630.062
      2047.392
 88  3 22  5 13 41.0800000  0  4G 6G 9G11G13
  -5759307.268 9 -13871627.252 7  14611144.129    14611145.861       -1135.915
      -886.521
 -24779954.145 8 -19376596.545 8  14675971.268    14675973.776        1739.319
      1374.545
 -15517951.327 9 -25862177.391 8  14743972.616    14743974.247        -361.573
      -287.158
 -45420942.306 9  37668680.332 7  16227199.446    16227203.446        2617.160
      2023.805
 88  3 22  5 14 11.0800000  0  4G 6G 9G11G13
  -5724994.203 8 -13844889.804 8  14617673.683    14617676.576       -1128.363
      -912.326
 -24832350.011 8 -19417424.489 7  14666000.251    14666002.612        1744.853
      1349.982
 -15506644.880 9 -25853367.159 8  14746124.020    14746126.410        -395.169
      -296.522
 -45498963.623 9  37607884.527 8  16212353.463    16212356.618        2589.664
      2017.554
 88  3 22  5 14 41.0800000  0  4G 6G 9G11G13
  -5690114.855 9 -13817711.109 7  14624311.207    14624312.874       -1171.505
      -908.145
 -24884281.779 9 -19457890.778 9  14656117.521    14656120.311        1728.665
      1345.601
 -15494875.980 9 -25844196.580 8  14748363.973    14748365.862        -401.892
      -293.228
 -45576584.996 9  37547400.339 7  16197582.695    16197585.764        2592.734
      2014.291
 88  3 22  5 15 11.0800000  0  4G 6G 9G11G13
  -5654669.111 9 -13790091.053 7  14631056.827    14631057.460       -1203.721
      -925.108
 -24935746.925 9 -19497993.480 8  14646325.789    14646326.486        1717.884
      1339.673
 -15482646.334 8 -25834666.976 8  14750691.782    14750694.029        -442.074
      -323.838
 -45653804.813 9  37487229.078 7  16182887.841    16182890.932        2571.738
      1995.886
 88  3 22  5 15 41.0800000  0  4G 6G 9G11G13
  -5618656.938 9 -13762029.648 8  14637909.209    14637910.550       -1212.924
      -934.758
 -24986742.334 9 -19537730.159 8  14636621.122    14636622.218        1690.356
      1324.207
 -15469957.665 9 -25824779.694 7  14753106.232    14753108.422        -418.279
      -322.626
 -45730622.054 9  37427371.508 7  16168269.717    16168274.188        2560.159
      1993.345
 88  3 22  5 16 11.0800000  0  4G 6G 9G11G13
  -5582078.334 9 -13733526.853 8  14644870.977    14644871.895       -1212.493
      -952.828
 -25037265.615 8 -19577098.946 8  14627005.880    14627008.459        1686.704
      1300.290
 -15456811.656 9 -25814536.050 8  14755607.868    14755610.445        -452.784
      -339.788
 -45807036.032 9  37367828.168 8  16153729.612    16153732.452        2546.978
      1990.617
 88  3 22  5 16 41.0800000  0  4G 6G 9G11G13
  -5544932.998 8 -13704582.447 8  14651938.666    14651940.180       -1248.035
      -972.954
 -25087314.110 8 -19616097.767 7  14617483.068    14617483.880        1658.028
      1292.063
 -15443209.607 8 -25803937.033 8  14758195.147    14758198.123        -469.706
      -377.550
 -45883045.379 9  37308600.137 8  16139265.386    16139267.940        2525.415
      1972.149
 88  3 22  5 17 11.0800000  0  4G 6G 9G11G13
  -5507221.233 9 -13675196.656 7  14659115.122    14659116.030       -1270.865
      -987.035
 -25136884.885 8 -19654724.354 7  14608050.353    14608051.929        1641.202
      1278.697
 -15429153.518 9 -25792984.212 8  14760869.837    14760870.881        -503.262
      -357.802
 -45958649.224 9  37249688.080 8  16124878.418    16124881.587        2523.756
      1968.384
 88  3 22  5 17 41.0800000  0  4G 6G 9G11G13
  -5468942.847 9 -13645369.361 7  14666398.448    14666400.792       -1265.921
     -1001.041
 -25185975.516 9 -19692976.788 8  14598709.861    14598709.765        1630.836
      1256.284
 -15414644.661 9 -25781678.609 7  14763630.696    14763633.443        -483.206
      -401.243
 -46033846.042 9  37191093.168 8  16110568.693    16110571.634        2499.498
      1952.800
 88  3 22  5 18 11.0800000  0  4G 6G 9G11G13
  -5430098.038 9 -13615100.696 8  14673790.899    14673792.097       -1307.858
     -1021.472
 -25234583.283 8 -19730852.968 8  14589459.483    14589460.842        1619.911
      1250.269
 -15399684.625 8 -25770021.432 8  14766478.753    14766480.341        -508.573
      -388.697
 -46108635.096 8  37132816.013 7  16096337.201    16096339.604        2481.301
      1952.247
 88  3 22  5 18 41.0800000  0  4G 6G 9G11G13
  -5390686.839 9 -13584390.696 8  14681290.072    14681292.140       -1311.343
     -1027.629
 -25282705.498 9 -19768350.806 8  14580301.287    14580302.084        1608.404
      1255.949
 -15384275.488 8 -25758014.310 7  14769410.650    14769411.608        -510.702
      -415.932
 -46183015.421 9  37074857.333 8  16082182.901    16082184.368        2484.738
      1900.989
 88  3 22  5 19 11.0800000  0  4G 6G 9G11G13
  -5350709.181 9 -13553239.295 7  14688897.846    14688899.542       -1334.365
     -1045.214
 -25330339.082 8 -19805467.887 7  14571237.428    14571238.233        1583.994
      1233.150
 -15368418.801 9 -25745658.450 8  14772427.260    14772429.980        -520.590
      -420.307
 -46256985.486 9  37017218.349 8  16068106.393    16068109.769        2455.033
      1913.479
 88  3 22  5 19 41.0800000  0  4G 6G 9G11G13
  -5310165.110 9 -13521646.525 7  14696613.088    14696614.440       -1366.031
     -1059.848
 -25377481.979 9 -19842202.610 8  14562265.980    14562267.031        1561.491
      1235.462
 -15352116.704 9 -25732955.505 8  14775529.353    14775531.872        -550.103
      -401.261
 -46330544.571 9  36959899.603 8  16054108.362    16054111.687        2447.442
      1918.326
 88  3 22  5 20 11.0800000  0  4G 6G 9G11G13
  -5269054.790 8 -13489612.534 8  14704436.416    14704437.421       -1366.940
     -1061.911
 -25424131.443 9 -19878552.849 8  14553388.758    14553391.116        1547.575
      1196.321
 -15335370.525 9 -25719906.524 8  14778715.848    14778719.268        -570.661
      -444.758
 -46403691.704 9  36902901.860 8  16040189.868    16040190.933        2427.043
      1909.701
 88  3 22  5 20 41.0800000  0  4G 6G 9G11G13
  -5227378.541 8 -13457137.558 8  14712367.444    14712369.786       -1380.529
     -1079.602
 -25470284.810 9 -19914516.495 7  14544606.098    14544606.249        1536.419
      1214.621
 -15318181.859 9 -25706512.756 8  14781987.108    14781990.028        -574.393
      -438.302
 -46476425.889 9  36846225.887 8  16026347.212    16026351.361        2422.841
      1890.364
 88  3 22  5 21 11.0800000  0  4G 6G 9G11G13
  -5185136.457 8 -13424221.674 8  14720405.361    14720407.251       -1407.450
     -1108.030
 -25515939.468 8 -19950091.562 7  14535918.797    14535919.609        1522.791
      1179.507
 -15300552.867 9 -25692775.867 7  14785341.796    14785344.929        -598.595
      -474.342
 -46548746.303 9  36789872.359 7  16012587.451    16012588.258        2394.380
      1876.252
 88  3 22  5 21 41.0800000  0  4G 6G 9G11G13
  -5142328.738 8 -13390865.026 8  14728551.996    14728552.754       -1431.357
     -1114.585
 -25561092.864 9 -19985276.016 8  14527326.494    14527327.005        1497.313
      1159.473
 -15282485.081 9 -25678697.069 8  14788779.428    14788781.360        -599.879
      -474.460
 -46620651.650 9  36733842.233 9  15998903.204    15998906.258        2391.557
      1871.405
 88  3 22  5 22 11.0800000  0  4G 6G 9G11G13
  -5098955.636 8 -13357067.804 8  14736804.786    14736806.263       -1456.604
     -1120.619
 -25605742.270 8 -20020067.754 8  14518828.933    14518830.282        1485.224
      1156.944
 -15263980.165 8 -25664277.657 7  14792301.913    14792303.902        -628.411
      -473.702
 -46692141.657 9  36678135.752 8  15985299.076    15985301.645        2386.334
      1852.286
 88  3 22  5 22 41.0800000  0  4G 6G 9G11G13
  -5055017.387 9 -13322830.238 8  14745166.079    14745167.928       -1467.313
     -1142.181
 -25649885.090 9 -20054464.761 7  14510428.866    14510430.318        1482.297
      1160.667
 -15245039.798 9 -25649518.923 8  14795906.232    14795909.095        -632.343
      -494.878
 -46763215.146 9  36622753.847 8  15971774.129    15971775.438        2357.315
      1839.908
 88  3 22  5 23 11.0800000  0  4G 6G 9G11G13
  -5010514.249 9 -13288152.486 7  14753633.990    14753636.205       -1475.312
     -1177.711
 -25693518.978 8 -20088465.178 7  14502126.302    14502128.199        1450.065
      1110.441
 -15225665.969 9 -25634422.422 8  14799592.704    14799594.879        -647.374
      -504.286
 -46833870.825 8  36567697.492 8  15958329.966    15958331.433        2342.053
      1836.527
 88  3 22  5 23 41.0800000  0  4G 6G 9G11G13
  -4965446.477 8 -13253034.768 8  14762210.058    14762212.687       -1511.587
     -1170.870
 -25736641.354 9 -20122067.030 8  14493919.917    14493921.401        1464.259
      1119.537
 -15205860.490 9 -25618989.569 8  14803361.831    14803364.822        -661.385
      -528.495
 -46904108.301 8  36512967.016 7  15944963.994    15944965.641        2328.664
      1818.116
 88  3 22  5 24 11.0800000  0  4G 6G 9G11G13
  -4919814.514 8 -13217477.415 9  14770894.332    14770896.102       -1531.467
     -1195.532
 -25779249.577 9 -20155268.245 8  14485812.268    14485812.766        1406.645
      1099.560
 -15185625.037 9 -25603221.668 7  14807211.981    14807216.331        -686.855
      -533.540
 -46973926.656 9  36458563.129 8  15931677.121    15931678.946        2300.642
      1790.595
 88  3 22  5 24 41.0800000  0  4G 6G 9G11G13
  -4873618.546 9 -13181480.592 8  14779685.008    14779687.652       -1533.070
     -1208.482
 -25821341.214 9 -20188066.918 7  14477801.505    14477802.328        1408.726
      1080.900
 -15164961.657 9 -25587120.333 7  14811144.163    14811146.653        -669.567
      -537.654
 -47043324.911 8  36404486.596 7  15918471.236    15918473.461        2326.359
      1795.759
 88  3 22  5 25 11.0800000  0  4G 6G 9G11G13
  -4826859.139 9 -13145044.705 7  14788583.738    14788585.086       -1567.168
     -1227.931
 -25862913.594 8 -20220460.976 7  14469891.040    14469892.772        1383.479
      1077.582
 -15143872.289 9 -25570687.052 7  14815157.392    14815159.596        -710.364
      -550.566
 -47112302.469 8  36350737.873 7  15905345.086    15905347.855        2282.532
      1779.591
